Regional Weather Roundup
Issued by NWS

Home | Current Version | Previous Version | Graphics & Text | Print | Product List | Glossary On
Versions: 1 2 3 4 5 6 7 8 9 10 11 12 13 14 15 16 17 18 19 20 21 22 23 24 25 26 27 28 29 30 31 32 33 34 35 36 37 38 39 40 41 42 43 44 45 46 47 48 49 50
345
ASUS43 KOAX 250610
RWRNE

WEATHER ROUNDUP FOR NEBRASKA
NATIONAL WEATHER SERVICE OMAHA NE
100 AM CDT SAT MAR 25 2017

NOTES: SATELLITE DATA IS BEING USED TO AUGMENT CLOUD COVER ABOVE
       12000 FEET.
       "FAIR" INDICATES FEW OR NO CLOUDS BELOW 12,000 FEET WITH NO
       SIGNIFICANT WEATHER AND/OR OBSTRUCTIONS TO VISIBILITY.

  * THESE STATIONS DO NOT REPORT WEATHER SUCH AS RAIN...SNOW OR FOG.

NEZ001>004-019>022-054>056-250700-
NEBRASKA PANHANDLE

CITY           SKY/WX    TMP DP  RH WIND       PRES   REMARKS
SCOTTSBLUFF    CLEAR     34  27  75 E5        30.10F WCI  30
6HR MIN TEMP:  33; 6HR MAX TEMP:  57;

ALLIANCE       CLEAR     28  24  85 CALM      30.09F
6HR MIN TEMP:  27; 6HR MAX TEMP:  53;

CHADRON        CLEAR     42  29  59 SE9       30.08S
6HR MIN TEMP:  41; 6HR MAX TEMP:  59;

KIMBALL        CLEAR     34  30  86 SW5       30.12F WCI  30
SIDNEY         CLEAR     24  22  91 NW3       30.11F
6HR MIN TEMP:  24; 6HR MAX TEMP:  53;

$$

NEZ057>060-069>072-079>082-250700-
SOUTHWEST NEBRASKA

CITY           SKY/WX    TMP DP  RH WIND       PRES   REMARKS
NORTH PLATTE   CLOUDY    37  32  82 NW6       30.06F WCI  32
6HR MIN TEMP:  37; 6HR MAX TEMP:  46; 6HR PCP: TRACE;

IMPERIAL       CLEAR     37  31  78 N9        30.08F WCI  30
6HR MIN TEMP:  37; 6HR MAX TEMP:  44; 6HR PCP:  0.01;

LEXINGTON      CLOUDY    42  38  86 N9        30.04S
MCCOOK         CLOUDY    42  40  92 N6        30.05F
6HR MIN TEMP:  41; 6HR MAX TEMP:  43; 6HR PCP:  0.06;

OGALLALA       CLEAR     38  32  77 W5        30.10F WCI  35
$$

NEZ005>010-023>029-035>040-094-250700-
NORTH CENTRAL NEBRASKA

CITY           SKY/WX    TMP DP  RH WIND       PRES   REMARKS
VALENTINE      CLEAR     31  26  82 W7        30.12S WCI  24
6HR MIN TEMP:  30; 6HR MAX TEMP:  53;

AINSWORTH      CLEAR     32  29  90 NW6       30.10S WCI  26
BROKEN BOW     CLOUDY    39  36  89 N12       30.03F WCI  32
6HR MIN TEMP:  39; 6HR MAX TEMP:  43; 6HR PCP:  0.11;

O`NEILL        CLOUDY    38  37  95 N13       30.08F WCI  30
ORD            CLOUDY    41  37  86 N14       30.04F
6HR MIN TEMP:  41; 6HR MAX TEMP:  42; 6HR PCP:  0.18;

THEDFORD       CLEAR     35  30  80 NW7       30.11R WCI  29
$$

NEZ041-046>049-061>064-073>077-083>087-250700-
SOUTH CENTRAL NEBRASKA

CITY           SKY/WX    TMP DP  RH WIND       PRES   REMARKS
GRAND ISLAND   CLOUDY    39  39 100 N18G25    30.00F FOG     WCI  30
6HR MIN TEMP:  39; 6HR MAX TEMP:  40;

AURORA         CLOUDY    39  38  95 N22G28    29.99F WCI  29
HASTINGS       CLOUDY    40  38  93 N20       30.00F FOG     WCI  30
6HR MIN TEMP:  40; 6HR MAX TEMP:  41;

HEBRON         CLOUDY    41  38  89 N9G18     29.95F
HOLDREGE       CLOUDY    40  38  92 N20G26    30.00F WCI  31
KEARNEY *      CLOUDY    39  36  87 N17       30.02F WCI  30
YORK           CLOUDY    41  39  93 N20G28    29.99S
$$

NEZ011>018-030>034-042>045-250700-
NORTHEAST NEBRASKA

CITY           SKY/WX    TMP DP  RH WIND       PRES   REMARKS
NORFOLK        CLOUDY    37  36  96 NE17      30.03F FOG     WCI  27
6HR MIN TEMP:  37; 6HR MAX TEMP:  41; 6HR PCP:  0.08;

ALBION         CLOUDY    39  37  93 N13       30.05F FOG     WCI  32
BLAIR          LGT RAIN  41  40  95 N15       29.96S
FREMONT        CLOUDY    42  41  97 N10G17    29.99F
TEKAMAH        CLOUDY    42  39  89 N15       30.01F
6HR MIN TEMP:  42; 6HR MAX TEMP:  42; 6HR PCP:  0.29;

WAYNE          CLOUDY    38  38  99 N14       30.05F FOG     WCI  30
$$

NEZ050>053-065>068-078-088>093-250700-
SOUTHEAST NEBRASKA

CITY           SKY/WX    TMP DP  RH WIND       PRES   REMARKS
LINCOLN        LGT RAIN  42  40  92 N14       29.97F
6HR MIN TEMP:  42; 6HR MAX TEMP:  44; 6HR PCP:  0.07;

OMAHA EPPLEY   CLOUDY    42  37  82 N14       29.95F
6HR MIN TEMP:  42; 6HR MAX TEMP:  44; 6HR PCP:  0.30;

BEATRICE       CLOUDY    42  40  94 N14       29.92F
FALLS CITY     LGT RAIN  45  43  93 N16       29.86F
6HR MIN TEMP:  45; 6HR MAX TEMP:  53; 6HR PCP:  0.18;

NEBRASKA CITY  DRIZZLE   42  42 100 NE17G23   29.91F
PLATTSMOUTH    LGT RAIN  41  38  89 N12       29.94S
$$

NEZ044-045-051>053-067-250700-
OMAHA AREA

CITY           SKY/WX    TMP DP  RH WIND       PRES   REMARKS
OMAHA EPPLEY   CLOUDY    42  37  82 N14       29.95F
6HR MIN TEMP:  42; 6HR MAX TEMP:  44; 6HR PCP:  0.30;

BLAIR          LGT RAIN  41  40  95 N15       29.96S
FREMONT        CLOUDY    42  41  97 N10G17    29.99F
MILLARD        CLOUDY    43  41  94 N8        29.96F
OFFUTT AFB     CLOUDY    42  39  88 N13G21    29.95F
PLATTSMOUTH    LGT RAIN  41  38  89 N12       29.94S
WAHOO          LGT RAIN  41  39  93 N14G21    29.98F
$$




USA.gov is the U.S. government's official web portal to all federal, state and local government web resources and services.